TimePDT,TemperatureF,Dew PointF,Humidity,Sea Level PressureIn,VisibilityMPH,Wind Direction,Wind SpeedMPH,Gust SpeedMPH,PrecipitationIn,Events,Conditions,WindDirDegrees,DateUTC
12:10 AM,48.2,44.6,87,29.82,10.0,Calm,Calm,-,N/A,,Scattered Clouds,0,2013-06-24 07:10:00
12:55 AM,48.9,46.0,90,29.73,10.0,Calm,Calm,-,N/A,,Clear,0,2013-06-24 07:55:00
1:55 AM,48.9,46.0,90,29.73,10.0,Calm,Calm,-,N/A,,Mostly Cloudy,0,2013-06-24 08:55:00
2:55 AM,50.0,46.9,89,29.71,10.0,Calm,Calm,-,N/A,,Overcast,0,2013-06-24 09:55:00
3:55 AM,52.0,46.9,83,29.68,10.0,SSE,3.5,-,0.00,Rain,Light Rain,150,2013-06-24 10:55:00
4:55 AM,53.1,46.0,77,29.67,10.0,SSE,9.2,-,0.00,,Overcast,160,2013-06-24 11:55:00
5:55 AM,54.0,46.0,75,29.67,10.0,SSW,5.8,-,N/A,,Overcast,210,2013-06-24 12:55:00
6:55 AM,53.1,41.0,64,29.68,10.0,SSW,8.1,-,0.00,,Overcast,210,2013-06-24 13:55:00
7:55 AM,54.0,42.1,64,29.69,10.0,SW,15.0,-,N/A,,Overcast,220,2013-06-24 14:55:00
8:55 AM,53.1,43.0,69,29.71,10.0,South,11.5,-,0.00,Rain,Light Rain,180,2013-06-24 15:55:00
9:55 AM,53.1,46.9,80,29.73,10.0,South,6.9,-,0.02,Rain,Light Rain,180,2013-06-24 16:55:00
10:55 AM,53.1,44.1,71,29.76,10.0,WSW,5.8,-,0.00,,Overcast,250,2013-06-24 17:55:00
11:55 AM,54.0,42.1,64,29.77,10.0,SW,8.1,16.1,N/A,,Overcast,230,2013-06-24 18:55:00
12:55 PM,55.0,41.0,59,29.78,10.0,WSW,12.7,-,N/A,,Overcast,240,2013-06-24 19:55:00
1:55 PM,55.0,44.1,67,29.78,10.0,WSW,11.5,-,N/A,,Overcast,250,2013-06-24 20:55:00
2:55 PM,59.0,44.1,58,29.77,10.0,West,11.5,18.4,N/A,,Overcast,270,2013-06-24 21:55:00
3:55 PM,57.9,43.0,58,29.78,10.0,SW,15.0,23.0,N/A,,Overcast,220,2013-06-24 22:55:00
4:55 PM,61.0,44.1,54,29.78,10.0,West,15.0,21.9,N/A,,Overcast,260,2013-06-24 23:55:00
5:55 PM,59.0,45.0,60,29.79,10.0,WSW,17.3,21.9,N/A,,Clear,250,2013-06-25 00:55:00
6:55 PM,54.0,43.0,66,29.82,10.0,West,13.8,-,N/A,,Mostly Cloudy,260,2013-06-25 01:55:00
7:55 PM,52.0,42.1,69,29.83,10.0,West,10.4,-,N/A,,Overcast,280,2013-06-25 02:55:00
8:55 PM,51.1,42.1,71,29.85,10.0,West,10.4,-,N/A,,Overcast,260,2013-06-25 03:55:00
9:55 PM,51.1,42.1,71,29.86,10.0,Calm,Calm,-,N/A,,Overcast,0,2013-06-25 04:55:00
10:55 PM,50.0,43.0,77,29.86,10.0,Calm,Calm,-,N/A,,Overcast,0,2013-06-25 05:55:00
11:55 PM,50.0,42.1,74,29.85,10.0,Calm,Calm,-,N/A,,Scattered Clouds,0,2013-06-25 06:55:00